Wetbulb
71.80 71.62 71.30 70.73 70.16 68.60 67.95 67.33 68.03 68.62 68.82 67.73 68.55 68.03 67.96 66.26 63.30 62.94 65.35 63.76 67.67 67.44 66.72 66.42 67.36 67.70 66.13 66.16 65.76 66.90 66.59 66.44 66.43
71.35 70.50 70.04 69.52 68.62 67.87 66.88 67.10 67.82 68.53 69.99 69.77 69.46 68.91 67.09 64.52 64.26 64.59 65.16 65.99 68.71 68.16 66.96 66.66 66.08 65.71 66.52 67.26 66.95 66.09 66.18 64.96 64.93
70.56 69.82 69.16 68.38 67.93 67.33 66.91 67.75 68.97 69.76 70.22 69.77 68.89 67.61 66.37 64.77 64.20 64.68 65.50 68.17 68.67 67.68 67.07 66.99 66.97 66.95 66.55 66.40 66.09 65.94 65.01 64.96 64.54
70.06 69.70 69.18 68.53 68.06 67.19 68.14 68.70 69.21 69.38 69.67 69.10 68.02 66.64 65.43 63.07 63.94 65.07 65.19 68.33 68.77 67.89 66.49 65.26 65.94 65.44 67.33 65.97 65.38 64.73 64.33 64.10 66.23
69.07 69.03 69.21 69.42 68.74 68.33 68.63 69.22 69.11 69.92 69.38 68.20 66.77 65.35 64.12 61.36 62.36 63.41 64.79 68.44 68.43 67.82 66.54 66.48 65.64 66.61 66.91 65.45 64.78 63.65 64.65 65.66 63.87
66.87 66.42 67.78 68.75 68.62 68.55 68.65 69.39 69.42 68.27 66.99 66.68 65.63 64.09 62.19 61.66 61.40 63.28 67.21 67.83 68.07 67.52 66.17 66.64 66.37 66.55 65.04 63.65 64.30 64.10 63.66 62.79 62.53
65.69 64.99 66.52 68.35 68.20 68.25 68.77 68.94 67.62 64.83 64.35 63.86 63.72 62.42 62.12 62.54 62.33 62.97 67.35 67.35 67.63 67.26 65.85 66.03 66.04 64.90 63.81 63.99 63.79 62.92 61.91 62.79 61.94
63.68 64.41 64.02 64.04 63.94 64.33 64.63 65.03 62.22 61.51 62.01 62.04 61.26 61.43 61.93 62.22 62.94 64.86 66.77 67.28 67.31 66.78 65.25 65.46 64.60 64.15 64.35 63.10 62.58 62.61 61.72 61.45 60.93
61.20 61.77 61.91 62.10 61.56 60.67 60.66 61.46 60.10 62.00 61.63 61.01 59.99 60.26 60.50 60.91 62.27 64.05 64.97 66.51 65.78 65.61 65.33 64.83 64.44 64.12 63.54 63.07 62.81 61.35 60.83 60.60 59.86
59.53 59.00 60.33 60.89 60.29 59.46 57.71 59.13 59.44 60.16 60.35 59.98 59.12 58.78 58.28 58.95 59.77 62.51 62.87 65.11 66.00 65.17 65.06 64.79 64.46 63.98 63.41 62.85 61.55 60.61 59.97 59.63 59.69
60.12 60.02 60.07 60.21 60.06 59.20 58.06 57.78 57.01 57.11 58.29 58.43 58.94 58.59 58.78 59.10 58.78 60.69 62.28 63.87 64.93 64.48 64.69 64.69 64.37 63.98 63.38 62.28 60.77 60.15 59.62 59.30 59.01
59.48 60.12 60.03 59.61 60.42 59.67 59.15 57.23 55.27 55.50 55.03 54.69 57.89 58.37 58.36 58.33 57.62 58.24 58.73 61.09 62.50 64.03 64.88 64.62 64.19 63.86 63.42 62.14 60.66 59.86 59.31 58.95 58.57
59.15 59.58 59.49 60.11 61.38 59.72 58.65 57.13 54.16 52.60 52.03 53.18 54.43 56.88 57.64 57.87 57.70 56.77 57.22 58.14 61.33 63.17 64.10 64.39 63.97 63.64 63.49 61.98 60.81 59.98 59.05 58.55 58.32
58.90 58.85 58.37 58.80 59.91 59.62 58.48 55.35 55.14 53.58 52.21 51.84 53.01 53.85 54.88 57.04 57.80 57.36 57.91 57.01 58.47 60.85 62.23 62.85 62.97 63.56 63.10 61.94 60.73 59.99 58.97 58.32 57.92
58.48 57.91 57.21 57.12 57.59 58.03 58.03 56.24 55.23 54.30 53.47 53.72 52.87 52.15 53.03 53.86 54.90 57.20 57.58 56.63 57.51 59.50 60.56 60.65 60.68 62.04 62.54 61.40 60.65 60.05 59.16 58.25 57.71
57.05 57.12 56.84 56.23 56.55 56.63 57.36 56.32 54.88 53.62 53.02 51.65 50.77 50.99 50.19 51.57 54.60 56.67 56.28 55.75 56.02 57.78 58.60 59.31 59.28 60.60 61.61 61.72 60.71 60.19 59.51 58.62 57.86
56.59 55.77 55.79 56.06 55.46 55.27 55.05 56.01 54.54 53.87 53.70 51.37 50.54 48.14 50.10 49.90 50.83 53.44 55.66 56.13 56.76 55.62 56.55 57.52 58.28 58.37 58.31 57.84 60.51 60.25 59.79 59.44 58.57
56.21 55.23 54.42 54.70 55.04 54.45 54.44 54.86 54.94 53.00 52.87 52.33 50.73 46.33 46.33 47.23 49.44 49.60 51.90 53.51 55.60 56.45 55.96 56.82 57.61 57.59 57.48 57.82 58.50 59.17 59.73 59.58 59.59
55.38 54.01 52.37 51.67 52.61 53.17 52.79 53.55 54.46 53.96 51.82 51.66 51.13 49.12 48.07 45.24 43.69 46.03 48.05 49.80 51.59 53.80 53.90 55.89 56.73 57.09 56.81 56.26 56.08 57.15 58.57 59.21 59.92
51.76 51.71 51.65 51.73 50.22 51.02 51.74 51.40 52.44 53.23 52.96 51.86 50.71 49.13 47.45 46.08 43.31 41.18 44.31 46.74 49.16 50.89 53.81 53.84 53.78 54.72 54.88 53.78 54.52 56.47 58.69 59.29 59.84
MSLP
1016.72 1017.12 1017.38 1017.66 1018.15 1018.36 1018.52 1018.74 1019.01 1019.32 1019.55 1019.73 1019.91 1020.11 1020.34 1020.46 1020.54 1020.55 1020.55 1020.61 1020.80 1021.11 1021.30 1021.37 1021.51 1021.73 1021.81 1021.92 1022.03 1022.21 1022.43 1022.60 1022.62
1017.04 1017.28 1017.76 1018.10 1018.34 1018.56 1018.72 1018.83 1019.21 1019.48 1019.66 1019.88 1020.19 1020.44 1020.64 1020.73 1020.81 1020.87 1020.87 1020.83 1021.02 1021.35 1021.65 1021.86 1021.95 1022.06 1022.33 1022.41 1022.52 1022.66 1022.83 1022.78 1023.06
1017.16 1017.60 1018.03 1018.36 1018.55 1018.71 1018.89 1018.96 1019.24 1019.57 1019.76 1020.10 1020.41 1020.67 1020.83 1020.98 1021.13 1021.23 1021.28 1021.27 1021.30 1021.64 1022.15 1022.27 1022.32 1022.39 1022.57 1022.91 1023.11 1023.17 1023.23 1023.37 1023.43
1017.38 1017.80 1018.11 1018.37 1018.68 1018.88 1019.10 1019.20 1019.35 1019.61 1019.94 1020.29 1020.65 1020.84 1021.03 1021.26 1021.47 1021.60 1021.69 1021.58 1021.54 1021.88 1022.33 1022.51 1022.72 1022.89 1022.91 1023.27 1023.52 1023.59 1023.63 1023.75 1023.81
1017.69 1018.01 1018.25 1018.55 1018.75 1019.04 1019.32 1019.48 1019.64 1019.75 1020.07 1020.48 1020.85 1021.09 1021.34 1021.67 1021.82 1021.92 1022.00 1021.83 1021.88 1022.16 1022.44 1022.91 1023.04 1023.15 1023.33 1023.61 1023.87 1023.98 1024.08 1024.07 1024.10
1017.98 1018.29 1018.50 1018.72 1018.96 1019.25 1019.48 1019.74 1019.94 1020.07 1020.32 1020.71 1021.01 1021.23 1021.58 1021.88 1022.12 1022.06 1022.13 1022.07 1022.18 1022.49 1022.63 1023.08 1023.24 1023.48 1023.57 1023.84 1024.12 1024.32 1024.34 1024.44 1024.61
1018.31 1018.51 1018.68 1018.91 1019.20 1019.43 1019.66 1019.96 1020.27 1020.49 1020.71 1021.13 1021.20 1021.38 1021.62 1021.80 1022.13 1022.25 1022.27 1022.32 1022.43 1022.70 1022.92 1023.38 1023.55 1023.84 1024.16 1024.38 1024.50 1024.67 1024.77 1024.99 1025.06
1018.53 1018.67 1019.00 1019.27 1019.50 1019.79 1019.96 1020.35 1020.70 1020.86 1021.02 1021.30 1021.44 1021.65 1021.83 1022.08 1022.23 1022.36 1022.43 1022.51 1022.65 1022.83 1023.22 1023.62 1023.97 1024.28 1024.55 1024.68 1024.92 1025.15 1025.20 1025.49 1025.67
1018.65 1018.89 1019.20 1019.52 1019.75 1020.04 1020.23 1020.71 1020.93 1021.02 1021.11 1021.27 1021.71 1021.95 1021.93 1022.20 1022.32 1022.51 1022.61 1022.78 1022.94 1023.10 1023.57 1023.87 1024.16 1024.49 1024.73 1025.10 1025.22 1025.38 1025.68 1025.82 1025.98
1018.58 1019.06 1019.33 1019.55 1019.92 1020.02 1020.44 1020.89 1020.97 1021.08 1021.35 1021.57 1021.92 1022.04 1022.31 1022.47 1022.57 1022.73 1022.83 1022.96 1023.16 1023.40 1023.79 1024.12 1024.36 1024.62 1024.88 1025.13 1025.41 1025.71 1025.99 1026.12 1026.19
1018.31 1018.78 1019.24 1019.63 1019.80 1019.97 1020.30 1020.74 1021.05 1021.26 1021.47 1021.87 1022.09 1022.21 1022.42 1022.66 1022.78 1022.88 1023.06 1023.19 1023.41 1023.64 1023.87 1024.16 1024.42 1024.67 1024.94 1025.15 1025.60 1025.90 1026.12 1026.31 1026.39
1018.17 1018.53 1019.03 1019.43 1019.65 1019.82 1020.16 1020.76 1020.99 1021.36 1021.63 1021.98 1022.13 1022.30 1022.63 1022.87 1023.11 1023.14 1023.21 1023.28 1023.63 1023.72 1023.84 1024.11 1024.42 1024.69 1024.92 1025.32 1025.65 1025.98 1026.17 1026.30 1026.54
1018.03 1018.39 1018.84 1019.20 1019.49 1019.81 1020.00 1020.47 1021.13 1021.42 1021.80 1022.06 1022.40 1022.46 1022.60 1022.92 1023.10 1023.36 1023.44 1023.42 1023.44 1023.62 1023.86 1024.02 1024.33 1024.62 1024.85 1025.15 1025.63 1025.94 1026.19 1026.42 1026.60
1017.90 1018.44 1018.79 1019.12 1019.44 1019.82 1020.12 1020.47 1020.85 1021.47 1021.94 1022.23 1022.45 1022.79 1022.84 1022.75 1022.98 1023.26 1023.41 1023.56 1023.60 1023.56 1023.75 1023.94 1024.18 1024.43 1024.76 1025.03 1025.50 1025.89 1026.20 1026.45 1026.64
1017.97 1018.39 1018.91 1019.30 1019.76 1020.10 1020.26 1020.62 1020.97 1021.44 1021.55 1022.29 1022.81 1022.96 1023.10 1023.05 1023.16 1023.07 1023.12 1023.43 1023.58 1023.54 1023.60 1023.90 1024.10 1024.31 1024.67 1024.74 1025.31 1025.70 1026.09 1026.38 1026.55
1018.09 1018.44 1018.89 1019.42 1019.96 1020.20 1020.56 1020.66 1020.88 1021.53 1021.95 1022.41 1023.25 1023.14 1023.37 1023.43 1023.27 1023.09 1023.19 1023.34 1023.36 1023.42 1023.48 1023.72 1023.89 1024.09 1024.43 1024.63 1024.94 1025.35 1025.72 1026.08 1026.32
1018.09 1018.51 1019.00 1019.29 1019.89 1020.43 1020.67 1020.73 1021.09 1021.32 1021.70 1022.12 1022.84 1023.49 1023.56 1023.50 1023.41 1023.32 1023.11 1023.13 1023.15 1023.42 1023.49 1023.53 1023.59 1023.75 1024.11 1024.41 1024.59 1024.95 1025.29 1025.61 1025.92
1018.19 1018.54 1019.00 1019.30 1019.61 1020.35 1020.14 1021.09 1020.76 1021.27 1021.55 1021.52 1021.98 1022.97 1023.17 1023.49 1023.32 1023.20 1023.08 1023.06 1023.09 1023.00 1023.22 1023.36 1023.34 1023.38 1023.57 1023.88 1024.13 1024.35 1024.77 1025.05 1025.29
1018.72 1018.85 1019.15 1019.47 1019.83 1020.16 1020.33 1020.18 1020.61 1020.80 1021.40 1021.54 1021.68 1021.83 1022.23 1023.06 1023.58 1023.33 1023.07 1023.01 1022.87 1022.82 1022.87 1022.82 1022.88 1023.00 1023.16 1023.31 1023.54 1023.83 1024.13 1024.41 1024.66
1019.68 1019.50 1019.47 1019.75 1020.11 1020.07 1020.17 1020.49 1020.44 1020.84 1021.01 1021.39 1021.56 1021.98 1022.04 1022.38 1022.72 1023.22 1023.07 1023.05 1022.64 1022.55 1022.36 1022.50 1022.70 1022.62 1022.71 1023.00 1023.04 1023.18 1023.54 1023.85 1024.06
Wind_Speed
17 18 16 16 15 16 16 16 16 14 12 12 12 13 12 9 5 4 6 6 17 18 17 17 18 19 16 17 17 18 19 17 19
19 18 16 15 16 16 17 19 17 13 11 14 15 14 11 5 5 5 4 9 20 20 17 16 16 16 16 17 18 19 18 16 17
19 18 17 16 15 15 17 19 16 12 17 17 15 14 10 7 6 5 4 16 20 19 16 16 15 19 16 18 17 17 16 17 16
18 17 17 16 15 15 16 16 14 12 16 18 14 11 11 7 5 5 3 13 20 19 16 14 15 15 16 19 15 15 15 14 13
15 14 14 14 14 14 14 14 12 16 15 16 13 11 12 6 5 4 3 13 17 18 17 14 15 14 18 18 15 13 12 15 14
9 6 10 12 13 13 14 12 13 14 14 14 12 9 4 5 4 3 7 12 16 16 16 11 15 15 16 14 15 11 12 13 11
6 6 10 11 12 12 12 11 13 8 5 5 7 4 4 5 4 2 9 11 15 16 15 11 14 14 13 13 13 12 11 11 12
2 3 2 3 6 3 5 7 3 6 4 4 3 4 4 3 3 5 10 11 14 14 14 12 14 13 13 12 11 11 11 9 10
4 2 4 4 3 5 5 3 5 4 4 6 5 4 4 2 3 3 8 10 10 12 13 13 14 13 13 11 11 10 9 9 9
5 4 3 4 3 4 5 4 4 4 4 4 4 4 4 3 3 2 7 8 10 12 14 13 14 13 12 12 11 9 9 9 9
5 5 4 4 4 4 5 6 5 4 4 4 4 4 3 3 5 3 4 9 9 12 14 14 14 13 13 12 10 9 9 8 9
7 5 4 4 4 5 5 3 3 4 3 4 3 4 4 4 4 4 5 6 11 11 14 16 14 13 13 12 11 10 9 9 8
5 4 4 4 4 4 4 4 4 4 4 4 3 3 4 4 5 2 2 3 4 7 13 15 15 14 14 13 12 11 10 9 9
6 4 3 4 3 4 4 2 4 5 4 3 4 3 4 5 5 5 4 4 3 4 9 12 14 14 15 14 13 12 11 11 10
5 4 4 4 2 3 2 3 2 3 7 4 3 2 1 2 4 5 4 5 6 4 5 5 6 13 16 16 14 14 13 13 12
5 4 5 4 2 3 4 2 4 2 2 4 2 2 3 3 3 3 3 4 6 5 5 4 4 7 16 15 17 16 16 15 14
5 5 4 4 3 3 3 2 2 2 5 3 3 2 1 2 4 3 4 6 5 5 6 6 7 7 6 8 16 17 18 17 16
4 5 4 4 4 3 1 5 4 3 3 3 4 2 3 1 2 6 4 6 4 6 7 7 8 10 9 10 14 17 19 20 19
1 3 4 4 2 3 4 3 2 4 3 1 1 1 4 4 2 2 4 4 6 7 5 7 9 10 9 13 14 17 20 23 22
4 5 3 1 2 2 3 4 4 3 3 3 2 1 1 2 3 3 3 2 5 5 7 7 6 9 9 7 11 19 22 26 24
Wind_Direction
139 126 111 117 126 131 130 130 129 124 132 134 128 125 119 107 105 109 117 106 110 115 111 110 104 101 111 106 105 108 107 99 89
135 120 123 131 136 135 135 134 132 137 146 133 131 124 112 103 96 95 109 111 120 114 111 111 114 116 115 110 108 97 94 102 105
133 135 139 141 140 140 142 138 139 145 134 133 129 122 110 93 89 86 95 133 121 117 116 117 119 114 120 112 108 112 108 102 106
142 144 145 145 146 144 146 145 141 141 137 133 130 121 108 95 98 101 104 136 126 123 123 121 122 121 121 116 106 114 100 110 103
150 149 152 151 149 149 152 152 137 136 137 130 125 109 98 100 99 102 128 136 127 124 126 135 133 130 117 114 114 104 114 118 93
146 148 160 154 154 156 159 154 137 128 128 125 122 109 111 115 108 117 133 136 129 130 121 139 133 132 118 122 120 116 107 105 112
153 163 160 157 158 163 164 150 130 111 122 118 113 112 104 105 124 124 138 151 141 138 131 149 141 123 125 123 120 122 123 119 115
151 138 133 141 143 152 128 129 117 129 121 121 115 113 117 113 123 138 141 153 140 141 147 141 124 128 136 132 130 126 132 116 116
141 145 143 139 144 141 125 135 138 126 131 130 124 142 118 130 110 147 166 151 155 148 149 141 142 148 141 141 137 139 133 130 134
147 156 149 147 143 145 134 150 153 137 130 114 143 140 142 165 136 166 144 133 164 156 150 157 155 154 156 156 142 149 146 148 143
149 154 160 172 159 161 145 171 158 149 140 145 158 144 140 163 144 147 151 152 154 163 169 172 168 167 161 160 155 156 165 158 157
156 160 159 187 167 165 139 145 117 127 115 163 164 153 148 167 160 169 167 165 177 199 188 170 176 173 176 159 171 176 173 171 170
148 146 163 167 156 158 158 151 140 141 167 152 176 164 165 168 158 169 192 187 180 192 184 180 182 183 179 175 183 184 186 184 182
144 140 138 134 167 147 162 143 138 157 139 159 149 175 182 174 168 185 190 191 223 187 209 182 185 195 185 179 193 196 195 195 194
147 134 130 122 157 165 163 142 127 150 156 130 101 79 252 176 187 199 189 186 215 202 174 191 200 182 195 182 202 204 205 205 203
144 138 137 140 165 171 190 146 168 114 108 103 57 47 5 297 252 217 216 215 209 210 193 193 189 187 194 198 198 208 210 211 211
144 142 150 159 155 164 194 201 150 119 170 135 120 169 346 277 252 256 225 215 212 212 226 200 191 180 194 199 199 206 214 215 217
143 137 148 169 162 178 125 217 163 181 188 228 144 149 200 111 242 240 230 222 208 214 213 216 206 197 196 195 204 200 210 217 221
96 120 116 125 131 182 204 164 216 149 194 289 207 108 136 173 268 279 254 232 225 219 218 220 210 206 206 200 201 203 204 215 223
5 14 22 299 185 186 223 173 205 231 155 201 180 192 116 114 143 230 278 324 244 229 221 213 215 214 208 210 211 203 207 216 225